Regional Weather Roundup
Issued by NWS

Home | Current Version | Previous Version | Text Only | Print | Product List | Glossary On
Versions: 1 2 3 4 5 6 7 8 9 10 11 12 13 14 15 16 17 18 19 20 21 22 23 24 25 26 27 28 29 30 31 32 33 34 35 36 37 38 39 40 41 42 43 44 45 46 47 48 49 50
000
ASUS44 KJAN 300210
RWRMS

MISSISSIPPI HOURLY WEATHER ROUNDUP
NATIONAL WEATHER SERVICE JACKSON MS
900 PM CDT FRI MAY 29 2015

NOTE: "FAIR: INDICATES FEW OR NO CLOUDS BELOW 12,000 FEET WITH NO
SIGNIFICANT WEATHER AND/OR OBSTRUCTIONS TO VISIBILITY.

MSZ001>002-007>008-010>013-018>021-025>028-034>036-300300-
NORTHWEST MISSISSIPPI

CITY           SKY/WX    TMP DP  RH WIND       PRES   REMARKS
CLARKSDALE       N/A     77  73  88 CALM      30.00R
CLEVELAND      FAIR      77  71  80 SE12      29.97S
GREENWOOD      PTCLDY    76  67  73 SE8       30.01S
GREENVILLE     PTCLDY    80  72  76 SE12      29.96S
OXFORD         FAIR      72  66  83 SE7       30.05S
TUNICA         PTCLDY    75  70  83 SE14      30.00R
$$

MSZ003>006-009-014>017-022>024-029>033-037>039-300300-
NORTHEAST MISSISSIPPI

CITY           SKY/WX    TMP DP  RH WIND       PRES   REMARKS
COLUMBUS AFB   CLEAR     73  70  89 SE6       30.05R
CORINTH        FAIR      75  70  83 CALM      30.03S
GOLDN TRIANGLE CLEAR     75  66  73 SE7       30.04S
STARKVILLE     FAIR      73  68  83 CALM      30.05R
TUPELO         PTCLDY    75  66  73 S6        30.04R
$$

MSZ040-058-300300-
CENTRAL MISSISSIPPI

CITY           SKY/WX    TMP DP  RH WIND       PRES   REMARKS
JACKSON INTL   PTCLDY    76  69  79 SE9       30.03R
JACKSON HAWKNS CLEAR     77  68  73 SE7       30.04R
MERIDIAN KEY   PTCLDY    70  68  93 CALM      30.06S
MERIDIAN NAS   LGT RAIN  72  68  87 SE3       30.06F
RAYMOND        MOCLDY    77  73  88 S5        30.03R
VICKSBURG      MOCLDY    73  70  90 S5        30.00R
$$

MSZ059>079-300300-
SOUTH MISSISSIPPI

CITY           SKY/WX    TMP DP  RH WIND       PRES   REMARKS
BROOKHAVEN       N/A     75  73  94 S6        30.05S
HATTIESBURG    CLEAR     75  71  87 S6        30.06R
MCCOMB         PTCLDY    74  71  91 SE5       30.04S
NATCHEZ        PTCLDY    73  70  88 SE8       30.01S
PINE BELT      CLEAR     72 N/A N/A CALM      30.08R
$$

MSZ080>082-300300-
COASTAL MISSISSIPPI

CITY           SKY/WX    TMP DP  RH WIND       PRES   REMARKS
BAY ST LOUIS   PTCLDY    79  66  65 MISG      30.05S
BILOXI         PTCLDY    80  71  75 S9        30.06R
PASCAGOULA     CLEAR     74  71  91 CALM      30.07R
GULFPORT       CLEAR     80  69  69 SE10      30.05S
$$


USA.gov is the U.S. government's official web portal to all federal, state and local government web resources and services.